CZ-2C DEB, 40290

Orbit data source: Space-Track

CZ-2C DEB, 40290 is space debris in SSO originally from a launch on Mon, 27 Oct 2014 UTC launched from the Jiuquan Satellite Launch Center, China (JSC). Debris objects in space refer to the collection of defunct objects orbiting the Earth. Examples of debris include non-operational satellites, rocket bodies, and fragments generated from explosions, collisions, or faulty payload assembly.

Loading next visibility...
Identifier
40290, 2014-066E
Orbit
SSO
Country
Flag of CNCN / PRC
Related business
Manufacturer
CALT
Mission
Spacecraft
Bus & Motor
Unknown
Mass
1 kg wet, 1 kg dry
Launch date (UTC)
2014-10-27 (12 years ago)
Launch vehicle
Unknown
Launch site
Jiuquan Satellite Launch Center, China (JSC)
Object type
Payload
Rocket body
Debris
Shape & HBR
Cone, 0.1 m
Radar Cross Section
0.025 m², Medium (>0.1 m² and < 1m²)

Expand to show TLE details & history
Last TLE update: 2 days ago

TLE from 2 days ago
0 CZ-2C DEB
1 40290U 14066E   26171.42406447  .00013662  00000-0  10802-2 0  9991
2 40290  97.9389 148.9846 0041983 173.4304 186.7479 15.00066304620475
Epoch: 2026-06-20T10:10Z
TLE epoch observation values (Epoch: 2026-06-20T10:10:39.170Z)
Latitude
0.00008°
Longitude
87.68249°
Altitude
598.702 km
Speed
7.545 km/s
True Right ascension
09h 55m 56s
True Declination
0° 00' 00"
Sunlit
Object was in daylight at epoch
Visualization orbit readout
Latitude
Unknown
Longitude
Unknown
Altitude
Unknown
Speed
Unknown
Apparent Right ascension
Unknown
Apparent Declination
Unknown
Sunlit
N/A
Visualization observer readout
Local Sidereal Time
21:36:37
Azimuth
Unknown
Elevation
Unknown
Doppler factor
Unknown
Orbital elements
Apogee altitude
592.851 km
Perigee altitude
534.564 km
Semi-major axis
6,941.844 km
Eccentricity
0.0042
Inclination
97.9389°
RAAN
148.9846°
Arg. of periapsis
173.4304°
True anomaly
186.69166°
Mean anomaly
186.7479°
Eccentric anomaly
186.71975°
Mean motion
3.75259 °/min
Orbital period
95.93 mins
BSTAR
0.0010802
Loading maneuver chart data...
Computing Atmospheric mass density...
Loading historical data...
Loading historical data...
Loading historical data...
Loading historical data...
Loading historical data...
Loading historical data...
Loading historical data...
Other satellites on launch #66 in the year 2014 (2014-10-27 UTC)

Documentation

Showing up to 5 results
|